owner,sensor,date,latitude,longitude,vertical_datum,wind_speed,wind_to_direction,wind_speed_of_gust,qcFlag 
TCOON,ioos:station:TCOON:146:1,2014-09-01T02:30:00Z,28.1324,-97.0345,0.0,6.1,122.0,8.2,'1111122,1111122,1111122' 
TCOON,ioos:station:TCOON:146:1,2014-09-01T03:30:00Z,28.1324,-97.0345,0.0,7.1,126.0,8.6,'1111122,1111122,1111122' 
TCOON,ioos:station:TCOON:146:1,2014-09-01T04:30:00Z,28.1324,-97.0345,0.0,7.0,134.0,8.5,'1111122,1111122,1111122' 
TCOON,ioos:station:TCOON:146:1,2014-09-01T05:30:00Z,28.1324,-97.0345,0.0,7.8,139.0,9.4,'1111122,1111122,1111122' 
TCOON,ioos:station:TCOON:146:1,2014-09-01T06:30:00Z,28.1324,-97.0345,0.0,7.5,140.0,8.8,'1111122,1111122,1111122' 
TCOON,ioos:station:TCOON:146:1,2014-09-01T07:30:00Z,28.1324,-97.0345,0.0,6.4,146.0,7.7,'1111122,1111122,1111122' 
TCOON,ioos:station:TCOON:146:1,2014-09-01T08:30:00Z,28.1324,-97.0345,0.0,4.9,153.0,5.8,'1111122,1111122,1111122' 
TCOON,ioos:station:TCOON:146:1,2014-09-01T09:30:00Z,28.1324,-97.0345,0.0,5.2,152.0,6.5,'1111122,1111122,1111122' 
TCOON,ioos:station:TCOON:146:1,2014-09-01T10:30:00Z,28.1324,-97.0345,0.0,4.6,152.0,5.7,'1111122,1111122,1111122' 
TCOON,ioos:station:TCOON:146:1,2014-09-01T11:30:00Z,28.1324,-97.0345,0.0,4.8,155.0,6.0,'1111122,1111122,1111122' 
TCOON,ioos:station:TCOON:146:1,2014-09-01T12:30:00Z,28.1324,-97.0345,0.0,4.0,143.0,5.3,'1111122,1111122,1111122' 
TCOON,ioos:station:TCOON:146:1,2014-09-01T13:30:00Z,28.1324,-97.0345,0.0,4.1,144.0,4.7,'1111122,1111122,1111122' 
TCOON,ioos:station:TCOON:146:1,2014-09-01T14:30:00Z,28.1324,-97.0345,0.0,4.7,132.0,6.0,'1111122,1111122,1111122' 
TCOON,ioos:station:TCOON:146:1,2014-09-01T15:30:00Z,28.1324,-97.0345,0.0,4.9,137.0,5.6,'1111122,1111122,1111122' 
TCOON,ioos:station:TCOON:146:1,2014-09-01T16:30:00Z,28.1324,-97.0345,0.0,5.5,129.0,7.0,'1111122,1111122,1111122' 
TCOON,ioos:station:TCOON:146:1,2014-09-01T18:30:00Z,28.1324,-97.0345,0.0,5.8,126.0,6.8,'1111122,1111122,1111122' 
TCOON,ioos:station:TCOON:146:1,2014-09-01T19:30:00Z,28.1324,-97.0345,0.0,6.3,127.0,8.1,'1111122,1111122,1111122' 
TCOON,ioos:station:TCOON:146:1,2014-09-01T20:30:00Z,28.1324,-97.0345,0.0,6.1,126.0,8.0,'1111122,1111122,1111122' 
TCOON,ioos:station:TCOON:146:1,2014-09-01T21:30:00Z,28.1324,-97.0345,0.0,5.7,127.0,6.7,'1111122,1111122,1111122' 
TCOON,ioos:station:TCOON:146:1,2014-09-01T22:30:00Z,28.1324,-97.0345,0.0,5.8,120.0,7.4,'1111122,1111122,1111122' 
TCOON,ioos:station:TCOON:146:1,2014-09-01T23:30:00Z,28.1324,-97.0345,0.0,6.1,121.0,7.7,'1111122,1111122,1111122' 
TCOON,ioos:station:TCOON:146:1,2014-09-02T00:30:00Z,28.1324,-97.0345,0.0,5.8,120.0,7.4,'1111122,1111122,1111122' 
TCOON,ioos:station:TCOON:146:1,2014-09-02T01:30:00Z,28.1324,-97.0345,0.0,6.1,123.0,7.9,'1111122,1111122,1111122' 
TCOON,ioos:station:TCOON:146:1,2014-09-02T02:30:00Z,28.1324,-97.0345,0.0,7.0,124.0,8.5,'1111122,1111122,1111122' 
TCOON,ioos:station:TCOON:146:1,2014-09-02T03:30:00Z,28.1324,-97.0345,0.0,6.4,121.0,8.0,'1111122,1111122,1111122' 
TCOON,ioos:station:TCOON:146:1,2014-09-02T04:30:00Z,28.1324,-97.0345,0.0,8.0,125.0,9.6,'1111122,1111122,1111122' 
TCOON,ioos:station:TCOON:146:1,2014-09-02T05:30:00Z,28.1324,-97.0345,0.0,7.9,124.0,10.0,'1111122,1111122,1111122' 
TCOON,ioos:station:TCOON:146:1,2014-09-02T07:00:00Z,28.1324,-97.0345,0.0,8.4,131.0,10.2,'1111122,1111122,1111122' 
TCOON,ioos:station:TCOON:146:1,2014-09-02T07:30:00Z,28.1324,-97.0345,0.0,7.8,135.0,10.2,'1111122,1111122,1111122' 
TCOON,ioos:station:TCOON:146:1,2014-09-02T08:30:00Z,28.1324,-97.0345,0.0,8.0,136.0,9.8,'1111122,1111122,1111122' 
TCOON,ioos:station:TCOON:146:1,2014-09-02T09:30:00Z,28.1324,-97.0345,0.0,7.2,132.0,8.4,'1111122,1111122,1111122' 
TCOON,ioos:station:TCOON:146:1,2014-09-02T10:30:00Z,28.1324,-97.0345,0.0,6.5,133.0,7.7,'1111122,1111122,1111122' 
TCOON,ioos:station:TCOON:146:1,2014-09-02T12:30:00Z,28.1324,-97.0345,0.0,6.1,128.0,7.7,'1111122,1111122,1111122' 
TCOON,ioos:station:TCOON:146:1,2014-09-02T13:30:00Z,28.1324,-97.0345,0.0,6.1,123.0,7.7,'1111122,1111122,1111122' 
TCOON,ioos:station:TCOON:146:1,2014-09-02T14:30:00Z,28.1324,-97.0345,0.0,6.5,122.0,8.3,'1111122,1111122,1111122' 
TCOON,ioos:station:TCOON:146:1,2014-09-02T20:30:00Z,28.1324,-97.0345,0.0,8.1,111.0,10.7,'1111122,1111122,1111122' 
TCOON,ioos:station:TCOON:146:1,2014-09-02T21:30:00Z,28.1324,-97.0345,0.0,7.6,119.0,9.4,'1111122,1111122,1111122' 
TCOON,ioos:station:TCOON:146:1,2014-09-02T23:00:00Z,28.1324,-97.0345,0.0,8.3,131.0,10.5,'1111122,1111122,1111122' 
TCOON,ioos:station:TCOON:146:1,2014-09-03T01:30:00Z,28.1324,-97.0345,0.0,6.6,106.0,8.6,'1111122,1111122,1111122' 
TCOON,ioos:station:TCOON:146:1,2014-09-03T02:30:00Z,28.1324,-97.0345,0.0,7.8,105.0,9.0,'1111122,1111122,1111122' 
TCOON,ioos:station:TCOON:146:1,2014-09-03T03:30:00Z,28.1324,-97.0345,0.0,7.0,118.0,8.9,'1111122,1111122,1111122' 
TCOON,ioos:station:TCOON:146:1,2014-09-03T04:30:00Z,28.1324,-97.0345,0.0,6.8,116.0,8.2,'1111122,1111122,1111122' 
TCOON,ioos:station:TCOON:146:1,2014-09-03T05:30:00Z,28.1324,-97.0345,0.0,6.0,115.0,7.5,'1111122,1111122,1111122' 
TCOON,ioos:station:TCOON:146:1,2014-09-03T06:30:00Z,28.1324,-97.0345,0.0,6.6,118.0,8.2,'1111122,1111122,1111122' 
TCOON,ioos:station:TCOON:146:1,2014-09-03T07:30:00Z,28.1324,-97.0345,0.0,7.0,119.0,9.8,'1111122,1111122,1111122' 
TCOON,ioos:station:TCOON:146:1,2014-09-03T08:30:00Z,28.1324,-97.0345,0.0,7.2,125.0,9.6,'1111122,1111122,1111122' 
TCOON,ioos:station:TCOON:146:1,2014-09-03T09:30:00Z,28.1324,-97.0345,0.0,7.0,127.0,8.7,'1111122,1111122,1111122' 
TCOON,ioos:station:TCOON:146:1,2014-09-03T10:30:00Z,28.1324,-97.0345,0.0,6.2,120.0,8.3,'1111122,1111122,1111122' 
TCOON,ioos:station:TCOON:146:1,2014-09-03T11:30:00Z,28.1324,-97.0345,0.0,4.9,109.0,6.3,'1111122,1111122,1111122' 
TCOON,ioos:station:TCOON:146:1,2014-09-03T12:30:00Z,28.1324,-97.0345,0.0,5.2,110.0,7.2,'1111122,1111122,1111122' 
TCOON,ioos:station:TCOON:146:1,2014-09-03T13:30:00Z,28.1324,-97.0345,0.0,5.7,116.0,7.2,'1111122,1111122,1111122' 
TCOON,ioos:station:TCOON:146:1,2014-09-03T14:30:00Z,28.1324,-97.0345,0.0,7.1,113.0,8.7,'1111122,1111122,1111122' 
TCOON,ioos:station:TCOON:146:1,2014-09-03T15:30:00Z,28.1324,-97.0345,0.0,8.4,110.0,10.6,'1111122,1111122,1111122' 
TCOON,ioos:station:TCOON:146:1,2014-09-03T16:30:00Z,28.1324,-97.0345,0.0,7.6,109.0,9.9,'1111122,1111122,1111122' 
TCOON,ioos:station:TCOON:146:1,2014-09-03T17:30:00Z,28.1324,-97.0345,0.0,7.2,109.0,10.3,'1111122,1111122,1111122' 
TCOON,ioos:station:TCOON:146:1,2014-09-03T19:30:00Z,28.1324,-97.0345,0.0,7.6,108.0,9.2,'1111122,1111122,1111122' 
TCOON,ioos:station:TCOON:146:1,2014-09-03T20:30:00Z,28.1324,-97.0345,0.0,7.5,105.0,9.6,'1111122,1111122,1111122' 
TCOON,ioos:station:TCOON:146:1,2014-09-03T22:30:00Z,28.1324,-97.0345,0.0,7.7,101.0,9.8,'1111122,1111122,1111122' 
TCOON,ioos:station:TCOON:146:1,2014-09-03T23:30:00Z,28.1324,-97.0345,0.0,7.7,102.0,9.6,'1111122,1111122,1111122' 
TCOON,ioos:station:TCOON:146:1,2014-09-04T00:30:00Z,28.1324,-97.0345,0.0,7.1,106.0,8.9,'1111122,1111122,1111122' 
TCOON,ioos:station:TCOON:146:1,2014-09-04T01:30:00Z,28.1324,-97.0345,0.0,7.3,103.0,9.2,'1111122,1111122,1111122' 
TCOON,ioos:station:TCOON:146:1,2014-09-04T02:30:00Z,28.1324,-97.0345,0.0,6.4,106.0,7.9,'1111122,1111122,1111122' 
TCOON,ioos:station:TCOON:146:1,2014-09-04T03:30:00Z,28.1324,-97.0345,0.0,6.2,110.0,8.0,'1111122,1111122,1111122' 
TCOON,ioos:station:TCOON:146:1,2014-09-04T04:30:00Z,28.1324,-97.0345,0.0,6.2,117.0,7.8,'1111122,1111122,1111122' 
TCOON,ioos:station:TCOON:146:1,2014-09-04T05:30:00Z,28.1324,-97.0345,0.0,6.2,122.0,8.0,'1111122,1111122,1111122' 
TCOON,ioos:station:TCOON:146:1,2014-09-04T06:30:00Z,28.1324,-97.0345,0.0,6.4,122.0,7.8,'1111122,1111122,1111122' 
TCOON,ioos:station:TCOON:146:1,2014-09-04T07:30:00Z,28.1324,-97.0345,0.0,5.3,127.0,6.5,'1111122,1111122,1111122' 
TCOON,ioos:station:TCOON:146:1,2014-09-04T08:30:00Z,28.1324,-97.0345,0.0,5.2,155.0,7.7,'1111122,1111122,1111122' 
TCOON,ioos:station:TCOON:146:1,2014-09-04T09:30:00Z,28.1324,-97.0345,0.0,5.1,109.0,6.8,'1111122,1111122,1111122' 
TCOON,ioos:station:TCOON:146:1,2014-09-04T10:30:00Z,28.1324,-97.0345,0.0,5.5,117.0,7.2,'1111122,1111122,1111122' 
TCOON,ioos:station:TCOON:146:1,2014-09-04T11:30:00Z,28.1324,-97.0345,0.0,5.6,115.0,7.9,'1111122,1111122,1111122' 
TCOON,ioos:station:TCOON:146:1,2014-09-04T13:30:00Z,28.1324,-97.0345,0.0,6.8,134.0,8.6,'1111122,1111122,1111122' 
TCOON,ioos:station:TCOON:146:1,2014-09-04T14:30:00Z,28.1324,-97.0345,0.0,7.2,137.0,8.7,'1111122,1111122,1111122' 
TCOON,ioos:station:TCOON:146:1,2014-09-04T16:30:00Z,28.1324,-97.0345,0.0,7.0,136.0,8.8,'1111122,1111122,1111122' 
TCOON,ioos:station:TCOON:146:1,2014-09-04T17:30:00Z,28.1324,-97.0345,0.0,6.3,128.0,7.5,'1111122,1111122,1111122' 
TCOON,ioos:station:TCOON:146:1,2014-09-04T18:30:00Z,28.1324,-97.0345,0.0,5.8,125.0,7.3,'1111122,1111122,1111122' 
TCOON,ioos:station:TCOON:146:1,2014-09-04T19:30:00Z,28.1324,-97.0345,0.0,5.7,125.0,7.0,'1111122,1111122,1111122' 
TCOON,ioos:station:TCOON:146:1,2014-09-04T20:30:00Z,28.1324,-97.0345,0.0,5.1,116.0,6.5,'1111122,1111122,1111122' 
TCOON,ioos:station:TCOON:146:1,2014-09-05T00:30:00Z,28.1324,-97.0345,0.0,5.2,115.0,6.1,'1111122,1111122,1111122' 
TCOON,ioos:station:TCOON:146:1,2014-09-05T01:30:00Z,28.1324,-97.0345,0.0,5.2,109.0,7.2,'1111122,1111122,1111122' 
TCOON,ioos:station:TCOON:146:1,2014-09-05T02:30:00Z,28.1324,-97.0345,0.0,5.7,112.0,7.8,'1111122,1111122,1111122' 
TCOON,ioos:station:TCOON:146:1,2014-09-05T03:30:00Z,28.1324,-97.0345,0.0,6.0,117.0,7.4,'1111122,1111122,1111122' 
TCOON,ioos:station:TCOON:146:1,2014-09-05T04:30:00Z,28.1324,-97.0345,0.0,6.1,117.0,7.6,'1111122,1111122,1111122' 
TCOON,ioos:station:TCOON:146:1,2014-09-05T05:30:00Z,28.1324,-97.0345,0.0,6.1,118.0,7.8,'1111122,1111122,1111122' 
TCOON,ioos:station:TCOON:146:1,2014-09-05T07:00:00Z,28.1324,-97.0345,0.0,6.0,127.0,7.2,'1111122,1111122,1111122' 
TCOON,ioos:station:TCOON:146:1,2014-09-05T07:30:00Z,28.1324,-97.0345,0.0,6.6,132.0,8.1,'1111122,1111122,1111122' 
TCOON,ioos:station:TCOON:146:1,2014-09-05T08:30:00Z,28.1324,-97.0345,0.0,6.5,136.0,8.0,'1111122,1111122,1111122' 
TCOON,ioos:station:TCOON:146:1,2014-09-05T11:30:00Z,28.1324,-97.0345,0.0,4.9,142.0,6.4,'1111122,1111122,1111122' 
TCOON,ioos:station:TCOON:146:1,2014-09-05T12:30:00Z,28.1324,-97.0345,0.0,4.9,148.0,6.2,'1111122,1111122,1111122' 
TCOON,ioos:station:TCOON:146:1,2014-09-05T13:30:00Z,28.1324,-97.0345,0.0,4.2,141.0,5.1,'1111122,1111122,1111122' 
TCOON,ioos:station:TCOON:146:1,2014-09-05T14:30:00Z,28.1324,-97.0345,0.0,4.1,128.0,5.3,'1111122,1111122,1111122' 
TCOON,ioos:station:TCOON:146:1,2014-09-05T16:30:00Z,28.1324,-97.0345,0.0,4.0,118.0,5.1,'1111122,1111122,1111122' 
TCOON,ioos:station:TCOON:146:1,2014-09-05T17:30:00Z,28.1324,-97.0345,0.0,4.5,119.0,6.0,'1111122,1111122,1111122' 
TCOON,ioos:station:TCOON:146:1,2014-09-05T18:30:00Z,28.1324,-97.0345,0.0,5.4,122.0,6.8,'1111122,1111122,1111122' 
TCOON,ioos:station:TCOON:146:1,2014-09-05T19:30:00Z,28.1324,-97.0345,0.0,5.6,122.0,7.4,'1111122,1111122,1111122' 
TCOON,ioos:station:TCOON:146:1,2014-09-05T20:30:00Z,28.1324,-97.0345,0.0,6.9,132.0,8.2,'1111122,1111122,1111122' 
TCOON,ioos:station:TCOON:146:1,2014-09-05T22:00:00Z,28.1324,-97.0345,0.0,7.2,141.0,8.5,'1111122,1111122,1111122' 
TCOON,ioos:station:TCOON:146:1,2014-09-05T22:30:00Z,28.1324,-97.0345,0.0,7.1,140.0,8.9,'1111122,1111122,1111122' 
TCOON,ioos:station:TCOON:146:1,2014-09-06T00:30:00Z,28.1324,-97.0345,0.0,6.5,140.0,7.9,'1111122,1111122,1111122' 
TCOON,ioos:station:TCOON:146:1,2014-09-06T02:30:00Z,28.1324,-97.0345,0.0,6.9,141.0,8.5,'1111122,1111122,1111122' 
TCOON,ioos:station:TCOON:146:1,2014-09-06T03:30:00Z,28.1324,-97.0345,0.0,7.1,137.0,8.2,'1111122,1111122,1111122' 
TCOON,ioos:station:TCOON:146:1,2014-09-06T04:30:00Z,28.1324,-97.0345,0.0,6.2,150.0,7.3,'1111122,1111122,1111122' 
TCOON,ioos:station:TCOON:146:1,2014-09-06T05:30:00Z,28.1324,-97.0345,0.0,5.7,136.0,6.8,'1111122,1111122,1111122' 
TCOON,ioos:station:TCOON:146:1,2014-09-06T06:30:00Z,28.1324,-97.0345,0.0,5.9,139.0,7.3,'1111122,1111122,1111122' 
TCOON,ioos:station:TCOON:146:1,2014-09-06T07:30:00Z,28.1324,-97.0345,0.0,5.2,151.0,6.8,'1111122,1111122,1111122' 
TCOON,ioos:station:TCOON:146:1,2014-09-06T08:30:00Z,28.1324,-97.0345,0.0,4.1,168.0,5.8,'1111122,1111122,1111122' 
TCOON,ioos:station:TCOON:146:1,2014-09-06T09:30:00Z,28.1324,-97.0345,0.0,2.4,180.0,3.2,'1111122,1111122,1111122' 
TCOON,ioos:station:TCOON:146:1,2014-09-06T11:30:00Z,28.1324,-97.0345,0.0,2.1,185.0,3.1,'1111122,1111122,1111122' 
TCOON,ioos:station:TCOON:146:1,2014-09-06T12:30:00Z,28.1324,-97.0345,0.0,1.6,173.0,2.5,'1111122,1111122,1111122' 
TCOON,ioos:station:TCOON:146:1,2014-09-06T13:30:00Z,28.1324,-97.0345,0.0,3.1,136.0,4.2,'1111122,1111122,1111122' 
TCOON,ioos:station:TCOON:146:1,2014-09-06T16:30:00Z,28.1324,-97.0345,0.0,4.5,234.0,6.4,'1111122,1111122,1111122' 
TCOON,ioos:station:TCOON:146:1,2014-09-06T17:30:00Z,28.1324,-97.0345,0.0,5.3,141.0,6.9,'1111122,1111122,1111122' 
TCOON,ioos:station:TCOON:146:1,2014-09-06T18:30:00Z,28.1324,-97.0345,0.0,4.7,136.0,5.5,'1111122,1111122,1111122' 
TCOON,ioos:station:TCOON:146:1,2014-09-06T19:30:00Z,28.1324,-97.0345,0.0,5.6,143.0,6.9,'1111122,1111122,1111122' 
TCOON,ioos:station:TCOON:146:1,2014-09-06T20:30:00Z,28.1324,-97.0345,0.0,5.4,139.0,6.7,'1111122,1111122,1111122' 
TCOON,ioos:station:TCOON:146:1,2014-09-06T21:30:00Z,28.1324,-97.0345,0.0,6.6,134.0,7.7,'1111122,1111122,1111122' 
TCOON,ioos:station:TCOON:146:1,2014-09-06T22:30:00Z,28.1324,-97.0345,0.0,7.2,135.0,8.7,'1111122,1111122,1111122' 
TCOON,ioos:station:TCOON:146:1,2014-09-07T00:30:00Z,28.1324,-97.0345,0.0,6.1,134.0,7.3,'1111122,1111122,1111122' 
TCOON,ioos:station:TCOON:146:1,2014-09-07T01:30:00Z,28.1324,-97.0345,0.0,6.2,145.0,7.3,'1111122,1111122,1111122' 
TCOON,ioos:station:TCOON:146:1,2014-09-07T02:30:00Z,28.1324,-97.0345,0.0,5.7,150.0,6.9,'1111122,1111122,1111122' 
TCOON,ioos:station:TCOON:146:1,2014-09-07T03:30:00Z,28.1324,-97.0345,0.0,6.3,140.0,7.8,'1111122,1111122,1111122' 
TCOON,ioos:station:TCOON:146:1,2014-09-07T04:30:00Z,28.1324,-97.0345,0.0,6.0,147.0,7.1,'1111122,1111122,1111122' 
TCOON,ioos:station:TCOON:146:1,2014-09-07T05:30:00Z,28.1324,-97.0345,0.0,4.3,150.0,5.0,'1111122,1111122,1111122' 
TCOON,ioos:station:TCOON:146:1,2014-09-07T06:30:00Z,28.1324,-97.0345,0.0,3.0,178.0,3.7,'1111122,1111122,1111122' 
TCOON,ioos:station:TCOON:146:1,2014-09-07T07:30:00Z,28.1324,-97.0345,0.0,4.0,178.0,5.2,'1111122,1111122,1111122' 
TCOON,ioos:station:TCOON:146:1,2014-09-07T08:30:00Z,28.1324,-97.0345,0.0,2.2,196.0,2.7,'1111122,1111122,1111122' 
TCOON,ioos:station:TCOON:146:1,2014-09-07T09:30:00Z,28.1324,-97.0345,0.0,3.5,204.0,4.1,'1111122,1111122,1111122' 
TCOON,ioos:station:TCOON:146:1,2014-09-07T10:30:00Z,28.1324,-97.0345,0.0,2.1,202.0,2.7,'1111122,1111122,1111122' 
TCOON,ioos:station:TCOON:146:1,2014-09-07T11:30:00Z,28.1324,-97.0345,0.0,2.2,212.0,2.7,'1111122,1111122,1111122' 
TCOON,ioos:station:TCOON:146:1,2014-09-07T12:30:00Z,28.1324,-97.0345,0.0,2.5,355.0,3.2,'1111122,1111122,1111122' 
TCOON,ioos:station:TCOON:146:1,2014-09-07T13:30:00Z,28.1324,-97.0345,0.0,3.7,355.0,4.7,'1111122,1111122,1111122' 
TCOON,ioos:station:TCOON:146:1,2014-09-07T14:30:00Z,28.1324,-97.0345,0.0,3.9,5.0,4.7,'1111122,1111122,1111122' 
TCOON,ioos:station:TCOON:146:1,2014-09-07T16:30:00Z,28.1324,-97.0345,0.0,4.7,50.0,5.8,'1111122,1111122,1111122' 
TCOON,ioos:station:TCOON:146:1,2014-09-07T17:30:00Z,28.1324,-97.0345,0.0,3.5,51.0,4.7,'1111122,1111122,1111122' 
TCOON,ioos:station:TCOON:146:1,2014-09-07T18:30:00Z,28.1324,-97.0345,0.0,3.1,32.0,4.5,'1111122,1111122,1111122' 
TCOON,ioos:station:TCOON:146:1,2014-09-07T23:00:00Z,28.1324,-97.0345,0.0,4.3,95.0,5.4,'1111122,1111122,1111122' 
TCOON,ioos:station:TCOON:146:1,2014-09-08T02:30:00Z,28.1324,-97.0345,0.0,4.0,116.0,5.4,'1111122,1111122,1111122' 
TCOON,ioos:station:TCOON:146:1,2014-09-08T03:30:00Z,28.1324,-97.0345,0.0,3.2,106.0,3.9,'1111122,1111122,1111122' 
TCOON,ioos:station:TCOON:146:1,2014-09-08T05:30:00Z,28.1324,-97.0345,0.0,3.7,13.0,4.3,'1111122,1111122,1111122' 
TCOON,ioos:station:TCOON:146:1,2014-09-08T07:00:00Z,28.1324,-97.0345,0.0,3.0,24.0,3.5,'1111122,1111122,1111122' 
TCOON,ioos:station:TCOON:146:1,2014-09-08T07:30:00Z,28.1324,-97.0345,0.0,3.0,14.0,3.8,'1111122,1111122,1111122' 
TCOON,ioos:station:TCOON:146:1,2014-09-08T08:30:00Z,28.1324,-97.0345,0.0,2.4,34.0,3.1,'1111122,1111122,1111122' 
TCOON,ioos:station:TCOON:146:1,2014-09-08T09:30:00Z,28.1324,-97.0345,0.0,3.1,24.0,3.7,'1111122,1111122,1111122' 
TCOON,ioos:station:TCOON:146:1,2014-09-08T10:30:00Z,28.1324,-97.0345,0.0,3.4,33.0,3.9,'1111122,1111122,1111122' 
TCOON,ioos:station:TCOON:146:1,2014-09-08T11:30:00Z,28.1324,-97.0345,0.0,2.7,25.0,3.2,'1111122,1111122,1111122' 
TCOON,ioos:station:TCOON:146:1,2014-09-08T12:30:00Z,28.1324,-97.0345,0.0,3.6,35.0,4.4,'1111122,1111122,1111122' 
TCOON,ioos:station:TCOON:146:1,2014-09-08T13:30:00Z,28.1324,-97.0345,0.0,3.3,38.0,3.8,'1111122,1111122,1111122' 
TCOON,ioos:station:TCOON:146:1,2014-09-08T14:30:00Z,28.1324,-97.0345,0.0,2.1,27.0,2.7,'1111122,1111122,1111122' 
TCOON,ioos:station:TCOON:146:1,2014-09-08T15:30:00Z,28.1324,-97.0345,0.0,2.0,348.0,2.8,'1111122,1111122,1111122' 
TCOON,ioos:station:TCOON:146:1,2014-09-08T17:30:00Z,28.1324,-97.0345,0.0,2.8,133.0,4.2,'1111122,1111122,1111122' 
TCOON,ioos:station:TCOON:146:1,2014-09-08T18:30:00Z,28.1324,-97.0345,0.0,3.5,120.0,4.9,'1111122,1111122,1111122' 
TCOON,ioos:station:TCOON:146:1,2014-09-08T19:30:00Z,28.1324,-97.0345,0.0,2.3,117.0,3.1,'1111122,1111122,1111122' 
TCOON,ioos:station:TCOON:146:1,2014-09-08T21:30:00Z,28.1324,-97.0345,0.0,5.4,127.0,7.1,'1111122,1111122,1111122' 
TCOON,ioos:station:TCOON:146:1,2014-09-08T22:30:00Z,28.1324,-97.0345,0.0,5.8,131.0,7.0,'1111122,1111122,1111122' 
TCOON,ioos:station:TCOON:146:1,2014-09-08T23:30:00Z,28.1324,-97.0345,0.0,5.9,133.0,7.1,'1111122,1111122,1111122' 
TCOON,ioos:station:TCOON:146:1,2014-09-09T00:30:00Z,28.1324,-97.0345,0.0,5.6,136.0,7.0,'1111122,1111122,1111122' 
TCOON,ioos:station:TCOON:146:1,2014-09-09T02:30:00Z,28.1324,-97.0345,0.0,5.8,138.0,6.7,'1111122,1111122,1111122' 
TCOON,ioos:station:TCOON:146:1,2014-09-09T03:30:00Z,28.1324,-97.0345,0.0,5.6,140.0,6.9,'1111122,1111122,1111122' 
TCOON,ioos:station:TCOON:146:1,2014-09-09T04:30:00Z,28.1324,-97.0345,0.0,5.4,138.0,6.2,'1111122,1111122,1111122' 
TCOON,ioos:station:TCOON:146:1,2014-09-09T05:30:00Z,28.1324,-97.0345,0.0,6.5,149.0,7.5,'1111122,1111122,1111122' 
TCOON,ioos:station:TCOON:146:1,2014-09-09T07:00:00Z,28.1324,-97.0345,0.0,6.4,149.0,7.3,'1111122,1111122,1111122' 
TCOON,ioos:station:TCOON:146:1,2014-09-09T07:30:00Z,28.1324,-97.0345,0.0,6.6,153.0,7.6,'1111122,1111122,1111122' 
TCOON,ioos:station:TCOON:146:1,2014-09-09T08:30:00Z,28.1324,-97.0345,0.0,6.1,162.0,7.4,'1111122,1111122,1111122' 
TCOON,ioos:station:TCOON:146:1,2014-09-09T09:30:00Z,28.1324,-97.0345,0.0,4.5,175.0,6.2,'1111122,1111122,1111122' 
TCOON,ioos:station:TCOON:146:1,2014-09-09T11:30:00Z,28.1324,-97.0345,0.0,3.0,184.0,3.7,'1111122,1111122,1111122' 
TCOON,ioos:station:TCOON:146:1,2014-09-09T12:30:00Z,28.1324,-97.0345,0.0,2.7,186.0,3.3,'1111122,1111122,1111122' 
TCOON,ioos:station:TCOON:146:1,2014-09-09T13:30:00Z,28.1324,-97.0345,0.0,3.0,189.0,3.9,'1111122,1111122,1111122' 
TCOON,ioos:station:TCOON:146:1,2014-09-09T14:30:00Z,28.1324,-97.0345,0.0,2.8,189.0,4.1,'1111122,1111122,1111122' 
TCOON,ioos:station:TCOON:146:1,2014-09-09T16:30:00Z,28.1324,-97.0345,0.0,0.9,331.0,2.1,'1111122,1111122,1111122' 
TCOON,ioos:station:TCOON:146:1,2014-09-09T17:30:00Z,28.1324,-97.0345,0.0,5.2,150.0,6.9,'1111122,1111122,1111122' 
TCOON,ioos:station:TCOON:146:1,2014-09-09T18:30:00Z,28.1324,-97.0345,0.0,6.0,139.0,7.5,'1111122,1111122,1111122' 
TCOON,ioos:station:TCOON:146:1,2014-09-10T02:00:00Z,28.1324,-97.0345,0.0,8.0,139.0,9.6,'1111122,1111122,1111122' 
TCOON,ioos:station:TCOON:146:1,2014-09-10T02:30:00Z,28.1324,-97.0345,0.0,8.2,142.0,10.2,'1111122,1111122,1111122' 
TCOON,ioos:station:TCOON:146:1,2014-09-10T03:30:00Z,28.1324,-97.0345,0.0,8.5,144.0,10.0,'1111122,1111122,1111122' 
TCOON,ioos:station:TCOON:146:1,2014-09-10T04:30:00Z,28.1324,-97.0345,0.0,8.8,148.0,10.4,'1111122,1111122,1111122' 
TCOON,ioos:station:TCOON:146:1,2014-09-10T05:30:00Z,28.1324,-97.0345,0.0,8.5,157.0,10.4,'1111122,1111122,1111122' 
TCOON,ioos:station:TCOON:146:1,2014-09-10T07:00:00Z,28.1324,-97.0345,0.0,7.7,165.0,10.7,'1111122,1111122,1111122' 
TCOON,ioos:station:TCOON:146:1,2014-09-10T07:30:00Z,28.1324,-97.0345,0.0,7.8,164.0,10.2,'1111122,1111122,1111122' 
TCOON,ioos:station:TCOON:146:1,2014-09-10T08:30:00Z,28.1324,-97.0345,0.0,6.6,170.0,9.6,'1111122,1111122,1111122' 
TCOON,ioos:station:TCOON:146:1,2014-09-10T12:00:00Z,28.1324,-97.0345,0.0,3.3,190.0,4.4,'1111122,1111122,1111122' 
TCOON,ioos:station:TCOON:146:1,2014-09-10T12:30:00Z,28.1324,-97.0345,0.0,3.8,183.0,5.2,'1111122,1111122,1111122' 
TCOON,ioos:station:TCOON:146:1,2014-09-10T13:30:00Z,28.1324,-97.0345,0.0,5.4,177.0,7.0,'1111122,1111122,1111122' 
TCOON,ioos:station:TCOON:146:1,2014-09-10T14:30:00Z,28.1324,-97.0345,0.0,6.3,175.0,8.6,'1111122,1111122,1111122' 
TCOON,ioos:station:TCOON:146:1,2014-09-10T15:30:00Z,28.1324,-97.0345,0.0,7.5,159.0,9.8,'1111122,1111122,1111122' 
TCOON,ioos:station:TCOON:146:1,2014-09-10T17:00:00Z,28.1324,-97.0345,0.0,7.6,150.0,9.4,'1111122,1111122,1111122' 
TCOON,ioos:station:TCOON:146:1,2014-09-10T18:30:00Z,28.1324,-97.0345,0.0,7.3,147.0,9.4,'1111122,1111122,1111122' 
TCOON,ioos:station:TCOON:146:1,2014-09-10T20:30:00Z,28.1324,-97.0345,0.0,7.2,147.0,8.6,'1111122,1111122,1111122' 
TCOON,ioos:station:TCOON:146:1,2014-09-10T21:30:00Z,28.1324,-97.0345,0.0,7.5,143.0,8.8,'1111122,1111122,1111122' 
TCOON,ioos:station:TCOON:146:1,2014-09-10T22:30:00Z,28.1324,-97.0345,0.0,7.5,134.0,9.0,'1111122,1111122,1111122' 
TCOON,ioos:station:TCOON:146:1,2014-09-10T23:30:00Z,28.1324,-97.0345,0.0,7.9,136.0,9.3,'1111122,1111122,1111122' 
TCOON,ioos:station:TCOON:146:1,2014-09-11T00:30:00Z,28.1324,-97.0345,0.0,8.0,142.0,9.5,'1111122,1111122,1111122' 
TCOON,ioos:station:TCOON:146:1,2014-09-11T01:30:00Z,28.1324,-97.0345,0.0,7.9,137.0,9.4,'1111122,1111122,1111122' 
TCOON,ioos:station:TCOON:146:1,2014-09-11T02:30:00Z,28.1324,-97.0345,0.0,8.1,143.0,9.5,'1111122,1111122,1111122' 
TCOON,ioos:station:TCOON:146:1,2014-09-11T03:30:00Z,28.1324,-97.0345,0.0,9.0,142.0,10.3,'1111122,1111122,1111122' 
TCOON,ioos:station:TCOON:146:1,2014-09-11T04:30:00Z,28.1324,-97.0345,0.0,8.6,142.0,10.0,'1111122,1111122,1111122' 
TCOON,ioos:station:TCOON:146:1,2014-09-11T05:30:00Z,28.1324,-97.0345,0.0,8.7,150.0,10.6,'1111122,1111122,1111122' 
TCOON,ioos:station:TCOON:146:1,2014-09-11T07:00:00Z,28.1324,-97.0345,0.0,7.4,153.0,10.0,'1111122,1111122,1111122' 
TCOON,ioos:station:TCOON:146:1,2014-09-11T07:30:00Z,28.1324,-97.0345,0.0,7.5,160.0,9.5,'1111122,1111122,1111122' 
TCOON,ioos:station:TCOON:146:1,2014-09-11T08:30:00Z,28.1324,-97.0345,0.0,6.1,169.0,7.6,'1111122,1111122,1111122' 
TCOON,ioos:station:TCOON:146:1,2014-09-11T09:30:00Z,28.1324,-97.0345,0.0,5.9,166.0,7.4,'1111122,1111122,1111122' 
TCOON,ioos:station:TCOON:146:1,2014-09-11T10:30:00Z,28.1324,-97.0345,0.0,5.2,175.0,7.1,'1111122,1111122,1111122' 
TCOON,ioos:station:TCOON:146:1,2014-09-12T12:30:00Z,28.1324,-97.0345,0.0,2.4,108.0,3.1,'1111122,1111122,1111122' 
TCOON,ioos:station:TCOON:146:1,2014-09-12T13:30:00Z,28.1324,-97.0345,0.0,4.1,31.0,5.3,'1111122,1111122,1111122' 
TCOON,ioos:station:TCOON:146:1,2014-09-12T14:30:00Z,28.1324,-97.0345,0.0,5.4,211.0,6.5,'1111122,1111122,1111122' 
TCOON,ioos:station:TCOON:146:1,2014-09-12T15:30:00Z,28.1324,-97.0345,0.0,2.6,251.0,3.3,'1111122,1111122,1111122' 
TCOON,ioos:station:TCOON:146:1,2014-09-12T16:30:00Z,28.1324,-97.0345,0.0,4.2,350.0,5.7,'1111122,1111122,1111122' 
TCOON,ioos:station:TCOON:146:1,2014-09-12T17:30:00Z,28.1324,-97.0345,0.0,2.9,360.0,3.8,'1111122,1111122,1111122' 
TCOON,ioos:station:TCOON:146:1,2014-09-12T18:30:00Z,28.1324,-97.0345,0.0,5.6,353.0,7.2,'1111122,1111122,1111122' 
TCOON,ioos:station:TCOON:146:1,2014-09-12T19:30:00Z,28.1324,-97.0345,0.0,6.9,358.0,8.2,'1111122,1111122,1111122' 